Weather History for Nampa, ID

Change the Weather History Date:

Tuesday, February 7, 2012

  Actual Average (KBOI) Record (KBOI)
Temperature  
Mean Temperature 36 °F 35 °F  
Max Temperature 48 °F 42 °F 60 °F (1898)
Min Temperature 24 °F 27 °F -13 °F (1989)
Degree Days  
Heating Degree Days 29 30  
Month to date heating degree days 217  
Since 1 July heating degree days 3578  
Cooling Degree Days 0 0  
Month to date cooling degree days 0  
Year to date cooling degree days 0  
Moisture  
Dew Point 22 °F    
Average Humidity 59    
Maximum Humidity 80    
Minimum Humidity 34    
Precipitation  
Precipitation 0.00 in 0.04 in 0.36 in (1899)
Month to date precipitation 0.25  
Year to date precipitation 1.49  
Snow  
Snow 0.00 in 0.10 in 4.20 in (1899)
Month to date snowfall 0.9  
Since 1 July snowfall 15.7  
Snow Depth -    
Sea Level Pressure  
Sea Level Pressure 30.11 in    
Wind  
Wind Speed 10 mph (SE)    
Max Wind Speed 15 mph    
Max Gust Speed 22 mph    
Visibility 10 miles    
Events      
T = Trace of Precipitation, MM = Missing Value Source: NWS Daily Summary

Daily Weather History Graph

Daily Weather History Graph

Search for Another Location

Airport:

Trip Planner

Search our weather history database for the weather conditions in past years. The results will help you decide how hot, cold, wet, or windy it might be!

Date:

Astronomy

Feb. 07, 2012 Rise Set
Actual Time 7:55 AM MST 6:05 PM MST
Civil Twilight 7:25 AM MST 6:35 PM MST
Nautical Twilight 6:51 AM MST 7:09 PM MST
Astronomical Twilight 6:18 AM MST 7:42 PM MST
Moon 6:23 PM MST (2/7) 7:26 AM MST (2/7)
Length of Visible Light 11h 09m
Length of Day
10h 09m
Full, 100% of the Moon is Illuminated
Feb 7
Full
Feb 7
Full
Feb 14
Last Quarter
Feb 21
New
Feb 29
First Quarter

Hourly Weather History & Observations

Time (MST) Temp. Windchill Dew Point Humidity Pressure Visibility Wind Dir Wind Speed Gust Speed Precip Events Conditions
12:15 AM 32.0 °F 23.6 °F 21.2 °F 64% 30.17 in 10.0 mi ESE 10.4 mph - N/A   Clear
12:35 AM 30.2 °F 20.8 °F 21.2 °F 69% 30.17 in 10.0 mi ESE 11.5 mph - N/A   Clear
12:55 AM 30.2 °F 20.8 °F 21.2 °F 69% 30.16 in 10.0 mi ESE 11.5 mph - N/A   Clear
1:15 AM 30.2 °F 21.3 °F 21.2 °F 69% 30.16 in 10.0 mi ESE 10.4 mph - N/A   Clear
1:35 AM 28.4 °F 19.7 °F 21.2 °F 74% 30.16 in 10.0 mi ESE 9.2 mph - N/A   Clear
1:55 AM 28.4 °F 18.0 °F 21.2 °F 74% 30.16 in 10.0 mi ESE 12.7 mph - N/A   Clear
2:15 AM 28.4 °F 19.7 °F 21.2 °F 74% 30.15 in 10.0 mi ESE 9.2 mph - N/A   Clear
2:35 AM 28.4 °F 20.4 °F 21.2 °F 74% 30.16 in 10.0 mi ESE 8.1 mph - N/A   Clear
2:55 AM 28.4 °F 21.2 °F 21.2 °F 74% 30.16 in 10.0 mi ESE 6.9 mph - N/A   Clear
3:15 AM 28.4 °F 18.5 °F 21.2 °F 74% 30.15 in 10.0 mi East 11.5 mph - N/A   Clear
3:35 AM 28.4 °F 19.1 °F 21.2 °F 74% 30.15 in 10.0 mi ESE 10.4 mph - N/A   Clear
3:55 AM 28.4 °F 19.1 °F 21.2 °F 74% 30.15 in 10.0 mi ESE 10.4 mph - N/A   Clear
4:15 AM 28.4 °F 19.7 °F 21.2 °F 74% 30.14 in 10.0 mi ESE 9.2 mph - N/A   Clear
4:35 AM 28.4 °F 20.4 °F 21.2 °F 74% 30.14 in 10.0 mi SE 8.1 mph - N/A   Clear
4:55 AM 28.4 °F 21.2 °F 21.2 °F 74% 30.14 in 10.0 mi SE 6.9 mph - N/A   Clear
5:15 AM 28.4 °F 20.4 °F 21.2 °F 74% 30.14 in 10.0 mi ESE 8.1 mph - N/A   Clear
5:35 AM 26.6 °F 20.0 °F 19.4 °F 74% 30.15 in 10.0 mi SE 5.8 mph - N/A   Clear
5:55 AM 26.6 °F 19.1 °F 19.4 °F 74% 30.14 in 10.0 mi ESE 6.9 mph - N/A   Clear
6:15 AM 26.6 °F 17.5 °F 19.4 °F 74% 30.14 in 10.0 mi ESE 9.2 mph - N/A   Clear
6:35 AM 26.6 °F 17.5 °F 19.4 °F 74% 30.14 in 10.0 mi ESE 9.2 mph - N/A   Clear
6:55 AM 24.8 °F 15.3 °F 19.4 °F 80% 30.14 in 10.0 mi ESE 9.2 mph - N/A   Clear
7:15 AM 24.8 °F 14.6 °F 19.4 °F 80% 30.13 in 10.0 mi ESE 10.4 mph - N/A   Clear
7:55 AM 26.6 °F 17.5 °F 21.2 °F 80% 30.14 in 10.0 mi East 9.2 mph - N/A   Clear
8:15 AM 26.6 °F 18.2 °F 21.2 °F 80% 30.14 in 10.0 mi East 8.1 mph - N/A   Clear
8:35 AM 28.4 °F 19.1 °F 21.2 °F 74% 30.14 in 10.0 mi ESE 10.4 mph - N/A   Clear
8:55 AM 28.4 °F 19.7 °F 21.2 °F 74% 30.15 in 10.0 mi ESE 9.2 mph - N/A   Clear
9:15 AM 30.2 °F 22.6 °F 21.2 °F 69% 30.15 in 10.0 mi ESE 8.1 mph - N/A   Clear
9:35 AM 32.0 °F 24.2 °F 23.0 °F 69% 30.14 in 10.0 mi ESE 9.2 mph - N/A   Clear
9:55 AM 32.0 °F 26.4 °F 23.0 °F 69% 30.15 in 10.0 mi SE 5.8 mph - N/A   Clear
10:15 AM 32.0 °F 24.2 °F 23.0 °F 69% 30.14 in 10.0 mi SE 9.2 mph - N/A   Clear
10:35 AM 33.8 °F 27.0 °F 23.0 °F 65% 30.15 in 10.0 mi ESE 8.1 mph - N/A   Clear
10:55 AM 37.4 °F 30.8 °F 24.8 °F 60% 30.14 in 10.0 mi East 9.2 mph - N/A   Clear
11:15 AM 37.4 °F 32.1 °F 24.8 °F 60% 30.13 in 10.0 mi ESE 6.9 mph - N/A   Clear
11:35 AM 39.2 °F 33.0 °F 23.0 °F 52% 30.13 in 10.0 mi South 9.2 mph - N/A   Clear
11:55 AM 41.0 °F 35.2 °F 23.0 °F 49% 30.12 in 10.0 mi SSE 9.2 mph - N/A   Clear
12:15 PM 41.0 °F 36.4 °F 23.0 °F 49% 30.12 in 10.0 mi SE 6.9 mph - N/A   Clear
12:35 PM 44.6 °F 40.7 °F 24.8 °F 46% 30.10 in 10.0 mi South 6.9 mph - N/A   Clear
12:55 PM 44.6 °F 40.7 °F 23.0 °F 43% 30.09 in 10.0 mi South 6.9 mph - N/A   Clear
1:15 PM 42.8 °F 38.6 °F 23.0 °F 46% 30.09 in 10.0 mi North 6.9 mph - N/A   Clear
1:35 PM 44.6 °F 40.7 °F 23.0 °F 43% 30.08 in 10.0 mi SW 6.9 mph - N/A   Clear
1:55 PM 48.2 °F - 21.2 °F 34% 30.06 in 10.0 mi South 15.0 mph 21.9 mph N/A   Clear
2:15 PM 48.2 °F - 21.2 °F 34% 30.05 in 10.0 mi SSE 15.0 mph 18.4 mph N/A   Clear
2:35 PM 48.2 °F - 21.2 °F 34% 30.06 in 10.0 mi South 15.0 mph 20.7 mph N/A   Clear
2:55 PM 48.2 °F - 21.2 °F 34% 30.06 in 10.0 mi South 10.4 mph 19.6 mph N/A   Clear
3:15 PM 48.2 °F - 21.2 °F 34% 30.05 in 10.0 mi South 13.8 mph 18.4 mph N/A   Clear
3:55 PM 48.2 °F - 21.2 °F 34% 30.05 in 10.0 mi South 13.8 mph 20.7 mph N/A   Clear
4:15 PM 48.2 °F - 21.2 °F 34% 30.05 in 10.0 mi SSE 15.0 mph 19.6 mph N/A   Clear
4:35 PM 46.4 °F 41.1 °F 21.2 °F 37% 30.05 in 10.0 mi SSE 11.5 mph 20.7 mph N/A   Clear
4:55 PM 46.4 °F 41.1 °F 21.2 °F 37% 30.05 in 10.0 mi SSE 11.5 mph 17.3 mph N/A   Clear
5:15 PM 44.6 °F 39.2 °F 23.0 °F 43% 30.05 in 10.0 mi SSE 10.4 mph - N/A   Clear
5:35 PM 44.6 °F 39.7 °F 23.0 °F 43% 30.05 in 10.0 mi South 9.2 mph - N/A   Clear
5:55 PM 42.8 °F 37.5 °F 23.0 °F 46% 30.06 in 10.0 mi SSE 9.2 mph - N/A   Clear
6:15 PM 41.0 °F 35.2 °F 23.0 °F 49% 30.06 in 10.0 mi SSE 9.2 mph - N/A   Clear
6:35 PM 41.0 °F 34.3 °F 23.0 °F 49% 30.06 in 10.0 mi SE 11.5 mph - N/A   Clear
6:55 PM 39.2 °F 32.5 °F 21.2 °F 49% 30.06 in 10.0 mi SE 10.4 mph - N/A   Clear
7:15 PM 39.2 °F - 21.2 °F 49% 30.07 in 10.0 mi North - - N/A   Clear
7:35 PM 37.4 °F 30.8 °F 21.2 °F 52% 30.07 in 10.0 mi SE 9.2 mph - N/A   Clear
7:55 PM 37.4 °F 31.4 °F 21.2 °F 52% 30.08 in 10.0 mi SSE 8.1 mph - N/A   Clear
8:15 PM 37.4 °F 31.4 °F 21.2 °F 52% 30.08 in 10.0 mi SSE 8.1 mph - N/A   Mostly Cloudy
8:55 PM 37.4 °F 31.4 °F 21.2 °F 52% 30.08 in 10.0 mi SSE 8.1 mph - N/A   Overcast
9:15 PM 39.2 °F 34.2 °F 23.0 °F 52% 30.09 in 10.0 mi SSE 6.9 mph - N/A   Mostly Cloudy
9:35 PM 39.2 °F 33.6 °F 23.0 °F 52% 30.10 in 10.0 mi SE 8.1 mph - N/A   Mostly Cloudy
9:55 PM 39.2 °F 33.6 °F 24.8 °F 56% 30.11 in 10.0 mi SSE 8.1 mph - N/A   Overcast
10:15 PM 37.4 °F 32.8 °F 24.8 °F 60% 30.11 in 10.0 mi SSE 5.8 mph - N/A   Overcast
10:35 PM 37.4 °F 32.1 °F 24.8 °F 60% 30.11 in 10.0 mi SE 6.9 mph - N/A   Overcast
10:55 PM 39.2 °F 32.5 °F 24.8 °F 56% 30.11 in 10.0 mi SE 10.4 mph - N/A   Overcast
11:15 PM 39.2 °F 33.0 °F 24.8 °F 56% 30.12 in 10.0 mi SE 9.2 mph - N/A   Overcast
11:35 PM 39.2 °F 33.6 °F 24.8 °F 56% 30.11 in 10.0 mi ESE 8.1 mph - N/A   Overcast
11:55 PM 37.4 °F 33.8 °F 24.8 °F 60% 30.12 in 10.0 mi SE 4.6 mph - N/A   Overcast